Dewpoint
70 66 67 65 68 68 67 65 58 60 60 54 51 52 57 58 60 60 59 62 61 60 64 59 57 57 58 55 55 58 57 61 62 55 57 66 69 68 69 69 69 70 70 71 72 75 76 77 75 76 76 75 76 75 76 76 76 76 76 76 76 76 76 75 75 75 75 75 75 75 75 75 76 76 75 75 75 75 75 75 75 74 75 75 75 74 75 76 75 74 74 75 74 75 74 75 75
66 67 67 67 67 68 61 64 58 56 57 53 51 53 58 59 59 59 58 62 60 60 60 58 57 56 57 56 57 58 59 61 60 62 63 66 66 67 67 69 69 69 70 71 71 71 73 76 77 76 76 76 76 76 76 76 76 76 76 76 76 76 76 76 76 76 76 75 75 75 75 75 75 75 75 75 75 75 75 75 75 75 75 75 75 74 75 76 75 74 74 75 75 74 75 75 75
66 65 66 68 67 67 63 62 57 54 52 53 52 55 57 57 57 59 62 63 60 60 59 57 56 57 56 56 57 62 57 61 61 62 64 67 66 67 67 68 70 70 70 70 70 69 72 75 77 77 76 76 76 76 76 76 76 76 76 76 76 76 77 76 75 75 75 75 75 75 75 75 75 75 75 75 75 75 75 75 74 75 75 75 75 75 75 76 76 75 74 74 74 75 75 75 74
66 66 64 64 60 65 62 59 58 54 51 52 50 54 57 58 58 61 63 62 61 58 57 56 58 58 56 56 59 59 60 62 61 62 64 65 65 67 67 69 72 69 69 70 69 69 72 76 77 77 76 76 76 76 76 76 76 76 76 76 76 76 76 76 76 75 75 75 75 75 75 75 75 75 75 75 75 75 75 75 74 75 75 75 76 75 76 75 75 75 75 75 74 74 75 75 75
66 67 65 63 61 59 61 59 56 54 55 53 56 56 59 58 60 61 62 61 60 57 56 57 57 61 61 60 63 58 60 63 63 64 63 65 66 66 68 70 69 69 69 69 69 69 73 77 77 76 76 76 76 76 76 76 76 76 76 76 76 75 75 76 75 75 75 75 75 74 75 75 75 75 75 75 75 75 75 75 74 75 75 75 75 75 75 75 75 75 75 74 74 74 74 74 75
66 65 67 69 62 67 67 59 55 51 53 55 53 55 60 61 61 60 61 61 60 58 57 57 57 59 59 61 63 61 61 60 62 63 64 66 66 66 67 69 67 67 69 70 68 71 73 77 77 77 76 76 76 77 76 76 76 76 76 76 76 76 75 75 75 75 75 75 75 75 75 75 76 75 75 75 76 76 75 75 74 75 75 75 76 76 75 75 75 75 75 74 74 74 74 74 73
65 65 64 66 65 66 59 54 52 51 57 57 56 56 61 60 61 62 61 60 60 58 58 58 58 58 57 61 62 62 64 62 61 62 64 66 66 66 66 67 67 67 68 69 69 70 73 77 77 77 76 76 76 76 75 76 76 76 76 75 75 75 75 76 75 75 75 75 75 75 75 75 76 76 75 75 75 75 75 75 75 75 74 74 75 76 75 75 75 75 75 74 74 74 74 74 73
67 64 63 62 61 62 58 53 51 53 55 60 59 58 63 63 62 63 60 59 58 58 58 60 58 59 61 60 60 62 63 63 62 63 65 66 66 66 66 66 66 65 67 69 70 72 77 76 76 76 76 76 76 76 76 76 76 76 76 75 75 76 76 75 75 75 76 75 76 75 75 75 76 76 76 76 75 75 75 75 75 74 75 75 75 74 74 75 75 75 75 74 74 74 74 74 74
66 68 67 64 59 58 54 52 52 53 55 56 59 63 65 64 62 61 60 59 59 59 58 59 58 58 60 61 61 63 63 63 63 66 65 66 66 65 65 65 65 65 66 68 70 72 74 77 76 76 76 76 76 76 76 76 75 75 76 76 76 76 75 75 75 75 75 75 76 76 75 76 75 76 75 75 75 75 75 74 75 75 75 75 74 74 73 74 75 75 75 75 74 74 75 74 74
66 69 64 61 58 54 53 51 52 53 57 59 60 60 64 64 62 59 59 58 59 58 59 58 58 63 60 61 61 63 63 63 64 65 66 66 66 65 65 65 66 65 65 68 69 69 73 77 76 76 76 76 76 76 76 76 76 75 75 75 75 75 75 76 76 75 76 75 76 76 75 76 76 75 75 75 75 75 75 75 74 75 75 75 75 75 74 75 75 75 75 75 74 74 74 74 74
64 65 66 61 56 51 50 49 51 53 56 58 61 63 63 61 60 61 58 57 59 58 58 59 58 60 61 61 64 65 63 63 64 64 66 66 65 65 64 66 65 65 65 66 67 70 73 74 76 76 76 76 76 76 76 76 75 75 75 75 76 76 76 76 75 75 75 75 75 76 76 75 75 75 75 75 75 75 75 75 75 75 75 75 75 74 75 75 75 75 75 75 74 74 74 74 74
65 62 63 58 54 53 51 51 52 53 57 59 61 62 60 61 62 58 57 57 58 58 58 59 58 60 60 61 63 64 63 63 63 65 66 66 65 64 65 65 65 64 64 65 67 69 71 75 75 76 76 76 76 76 76 76 76 75 75 75 75 75 75 75 75 75 75 75 76 76 76 76 75 75 75 75 75 75 75 75 75 75 75 75 75 75 74 74 76 76 75 75 75 75 74 74 73
64 65 61 55 53 54 52 52 51 53 54 56 59 61 61 60 58 59 58 57 58 58 58 59 60 60 59 61 64 64 62 62 64 65 66 66 65 65 65 64 64 64 64 67 66 69 71 72 73 75 75 76 76 76 76 76 75 76 75 75 75 75 76 76 75 75 76 76 76 76 76 76 75 75 75 75 75 75 75 75 75 75 75 75 75 75 74 74 76 75 76 75 75 74 74 74 73
65 64 60 57 55 52 53 51 52 52 52 57 59 62 61 59 58 61 60 58 57 57 58 61 60 60 61 62 64 62 60 63 65 65 65 66 65 65 65 65 65 65 66 66 68 69 69 70 70 73 76 76 77 76 76 76 76 75 75 75 75 75 76 75 75 75 75 76 75 75 75 75 75 75 75 75 75 75 74 75 75 75 75 75 74 74 74 74 74 75 76 75 74 75 74 74 74
65 64 60 58 55 52 51 52 49 49 52 57 60 61 60 60 60 62 62 60 59 60 60 61 60 59 61 60 61 60 60 62 65 65 66 66 67 66 65 65 65 66 65 65 67 68 68 69 69 74 74 76 76 76 75 76 76 76 75 75 75 75 75 75 76 76 76 74 74 74 74 76 76 75 75 75 74 75 76 74 74 75 74 75 75 74 74 74 75 75 75 75 74 74 74 74 74
65 63 60 57 53 53 50 51 49 49 52 58 61 60 60 60 60 61 59 61 60 60 60 59 60 57 62 58 61 61 61 63 64 65 66 67 68 67 67 66 66 66 66 66 67 68 68 69 71 72 75 74 75 75 76 76 76 75 75 75 75 75 74 75 75 75 75 75 74 74 74 74 75 74 74 74 75 75 74 74 74 74 75 75 74 74 75 74 75 75 76 75 75 74 74 74 74
66 65 59 56 52 51 49 50 49 52 53 58 60 60 61 59 60 63 61 61 59 58 59 60 59 60 59 60 61 61 61 64 65 65 66 68 68 67 67 67 66 65 66 66 67 67 67 69 71 72 74 75 74 75 75 76 75 75 75 75 75 75 75 74 75 75 75 76 75 76 75 76 77 75 75 74 74 75 75 75 74 75 75 75 75 74 75 74 74 75 74 75 75 75 75 74 73
65 61 57 55 54 51 51 52 50 51 54 57 58 58 60 59 60 61 60 59 61 59 59 59 60 60 61 62 62 62 62 63 64 64 65 66 67 66 65 67 66 65 66 67 68 67 69 70 71 71 72 74 74 74 75 74 75 74 75 75 75 76 75 75 76 76 76 77 75 76 76 75 74 76 76 75 76 75 74 75 74 74 74 74 75 74 75 74 75 75 75 75 75 76 75 74 74
61 58 56 53 52 55 56 54 53 52 52 55 57 58 58 58 59 59 58 58 58 59 60 60 61 61 62 61 62 61 62 63 63 63 63 64 65 66 65 66 65 64 65 66 68 67 69 71 71 70 71 74 74 74 73 73 74 75 74 74 74 74 75 76 77 77 78 78 78 76 75 75 75 76 76 75 76 74 74 74 74 75 75 75 75 75 74 74 74 74 75 75 75 75 73 74 74
59 57 55 54 56 56 57 55 55 54 54 55 56 57 57 58 58 59 58 57 58 58 58 60 60 59 60 60 61 62 63 63 63 63 63 63 62 63 65 64 64 65 64 64 67 66 67 69 71 70 72 73 72 73 72 73 73 74 72 73 73 74 75 75 76 76 77 77 75 76 74 76 76 76 75 76 76 75 75 75 75 75 76 75 75 75 74 74 74 75 76 76 75 73 74 73 76
56 56 54 56 56 54 54 55 55 55 55 55 56 57 57 59 58 58 58 57 57 57 59 59 59 59 60 61 61 62 62 62 62 62 61 61 61 61 63 64 63 63 64 65 68 68 67 69 69 70 72 72 72 72 72 72 73 72 71 71 72 72 73 74 74 75 76 76 75 74 73 74 73 75 76 75 74 75 75 74 75 75 75 75 75 75 74 75 74 74 75 76 73 73 71 73 74
56 54 55 59 56 54 55 57 55 56 55 56 57 55 56 59 59 57 57 55 54 56 59 59 60 60 60 60 62 62 62 61 61 61 60 60 60 62 63 63 64 64 66 66 68 69 67 68 68 70 71 72 72 71 72 74 73 71 71 71 72 73 73 73 72 73 72 74 73 71 73 74 74 74 75 75 75 75 74 73 74 75 75 75 75 73 73 74 74 73 73 72 71 70 70 72 70
52 54 55 57 58 57 57 55 60 57 56 57 54 56 56 57 57 58 58 56 55 56 58 60 61 61 61 61 61 61 61 61 60 60 60 60 61 61 62 63 63 64 66 66 68 69 68 67 69 70 70 72 72 72 73 73 72 72 72 70 71 71 72 72 71 70 73 74 73 73 70 71 71 71 74 74 74 74 73 73 72 74 74 73 73 72 74 74 73 72 72 73 71 69 69 72 72
52 50 54 55 57 57 57 56 56 56 55 54 54 56 55 56 55 57 57 57 57 58 59 61 61 61 61 61 61 60 61 60 60 60 60 61 61 61 62 62 63 64 66 66 68 68 68 66 69 69 70 71 73 72 72 73 72 71 71 73 71 71 71 70 68 70 73 73 74 73 72 71 70 71 73 74 73 74 73 74 74 71 73 73 75 73 72 72 72 72 73 73 72 71 68 70 69
48 48 52 55 56 56 56 56 56 55 54 54 53 53 54 55 55 57 57 56 58 59 61 61 61 61 61 61 61 61 60 60 60 59 61 61 62 62 63 63 64 65 65 67 67 67 68 67 69 69 70 72 71 71 71 71 72 72 71 70 70 73 71 68 69 73 72 71 73 74 74 70 70 71 73 73 73 73 74 73 71 71 73 73 73 71 73 74 72 72 72 72 72 72 70 70 70
45 46 49 53 53 54 55 55 54 53 52 51 51 51 53 54 55 54 56 57 59 61 61 61 61 61 60 61 61 61 60 60 60 60 61 62 61 62 63 64 64 64 65 66 67 68 67 68 68 67 69 71 70 69 71 71 72 71 72 71 71 73 70 70 73 70 69 70 70 73 73 72 70 70 72 72 73 74 74 74 73 73 72 73 72 72 72 72 71 72 73 73 71 72 71 71 70
47 44 44 48 51 52 53 53 53 53 52 51 50 50 51 53 54 52 54 55 60 61 61 62 61 61 61 60 61 61 61 60 60 60 61 62 62 63 63 64 63 64 65 65 65 67 68 68 68 69 69 72 70 68 70 72 73 72 72 72 72 71 71 73 71 70 69 69 71 75 75 75 73 71 72 74 74 73 74 74 73 73 72 72 73 73 74 73 73 73 74 72 73 72 71 70 70
40 48 48 47 46 47 49 52 53 52 50 51 50 49 49 52 54 51 52 57 60 60 61 61 61 61 61 61 61 63 62 61 62 61 61 62 61 61 63 64 64 64 65 65 66 67 67 67 67 69 70 71 71 69 71 70 71 71 73 72 71 72 74 71 70 71 72 72 73 74 75 74 75 74 75 75 74 73 73 72 74 74 73 72 73 72 73 74 74 74 76 76 75 73 72 70 71
37 43 40 41 43 43 46 48 50 50 48 48 48 47 47 50 52 52 54 58 60 60 61 61 61 61 62 62 61 63 62 62 62 61 61 61 62 62 62 63 63 64 65 65 66 67 65 66 67 69 70 72 72 69 70 70 70 70 71 71 71 71 72 71 71 71 72 74 76 75 75 76 76 76 76 76 75 74 74 74 73 74 74 74 74 75 75 75 74 72 75 75 74 74 72 71 71
33 33 36 38 40 41 45 46 47 47 47 47 47 44 49 51 51 52 55 58 58 59 61 60 61 61 61 61 61 62 62 63 62 62 62 62 63 62 63 62 64 64 65 66 66 66 66 65 67 67 69 71 72 69 71 70 71 71 71 70 71 71 69 70 71 71 72 73 74 75 75 75 75 76 77 77 75 73 74 74 74 73 74 75 75 75 73 72 72 72 72 72 73 74 72 72 70
29 27 32 33 34 36 43 46 46 45 46 46 47 45 48 49 49 51 54 57 57 58 60 60 61 61 62 61 62 62 62 64 62 63 62 63 63 63 64 64 64 65 66 66 66 67 67 67 66 66 70 70 72 70 71 71 72 70 72 70 71 72 71 71 69 71 71 71 72 72 75 74 75 75 77 77 75 74 73 72 74 73 74 76 74 74 73 73 73 73 71 72 73 72 71 72 71
28 28 28 30 33 35 40 44 46 45 46 46 46 44 47 47 48 50 54 56 56 57 59 60 60 61 61 61 62 62 62 63 63 62 62 63 64 64 64 64 64 65 66 67 67 67 67 68 69 67 69 70 71 72 73 72 72 72 71 71 71 73 70 71 70 69 69 69 70 73 74 75 75 76 77 77 76 74 72 72 72 75 76 75 74 75 75 73 73 73 73 72 72 71 73 72 71
25 25 25 26 30 32 37 42 45 46 45 45 45 43 45 45 47 49 54 54 54 56 58 59 60 61 61 61 61 62 62 63 63 62 63 63 64 64 64 65 65 66 66 67 68 68 69 68 70 67 67 70 71 71 73 73 73 73 73 72 69 73 69 69 69 69 69 70 69 70 74 75 76 76 78 78 77 75 73 73 72 74 75 74 75 75 74 73 73 71 75 74 74 73 71 70 71
19 23 23 23 25 28 32 38 43 45 45 44 45 43 50 49 46 51 52 53 54 54 56 58 60 61 62 62 61 61 62 63 63 64 63 64 64 65 65 67 66 67 68 68 68 68 69 69 69 67 69 68 71 72 73 73 74 74 73 72 72 71 68 67 67 68 69 67 69 70 74 75 76 77 78 78 77 76 74 73 73 76 75 75 74 75 74 73 73 72 74 75 75 74 72 71 70
16 21 21 20 25 28 28 34 41 44 44 43 44 44 44 47 49 48 50 51 52 53 55 57 59 60 62 62 61 62 62 62 62 64 63 64 64 64 65 67 66 67 67 67 69 70 70 70 70 70 70 70 71 73 74 74 73 74 72 72 71 71 71 68 67 67 66 68 67 71 75 75 75 77 77 78 78 75 74 75 75 76 75 75 75 74 74 74 74 73 73 75 76 74 74 73 71
13 18 20 20 24 28 27 30 40 42 42 42 43 43 43 45 45 48 49 51 52 53 55 57 59 60 62 62 62 62 62 62 63 63 64 64 65 65 66 67 67 67 68 68 70 71 72 71 71 72 72 70 72 73 73 71 71 70 70 70 70 70 68 67 69 67 67 66 68 70 74 74 75 76 78 78 78 77 75 74 75 76 75 75 75 73 72 73 76 76 74 75 75 75 74 73 73
23 19 21 20 21 26 27 29 38 41 40 41 42 43 43 44 44 47 49 51 52 52 54 57 59 60 61 61 61 62 63 62 63 64 64 64 64 66 66 67 67 67 68 69 70 70 71 70 72 72 72 72 72 71 71 69 69 70 70 68 66 67 68 67 67 66 66 65 69 70 74 72 75 76 77 77 77 77 77 76 76 76 75 75 75 74 74 75 77 76 76 74 73 73 74 73 72
22 23 22 22 23 23 25 27 33 39 40 40 42 41 43 44 45 45 50 50 50 51 54 57 58 59 61 62 62 62 63 63 63 64 63 64 64 65 65 66 68 67 69 69 70 71 72 71 71 72 72 73 72 71 71 70 71 70 70 68 62 61 65 66 65 65 64 64 70 73 74 73 74 75 76 76 77 77 77 76 77 76 75 75 76 76 77 76 77 76 74 74 73 72 72 70 70
19 19 21 21 23 24 25 27 33 35 36 38 40 41 41 42 43 44 46 50 51 52 54 57 59 60 61 61 62 63 63 63 63 63 64 64 64 64 65 66 67 67 68 69 70 71 72 71 71 72 72 72 72 72 71 71 71 73 70 67 62 59 63 65 61 63 64 63 68 72 73 74 75 74 75 76 75 75 75 76 76 76 76 75 76 76 76 77 77 75 76 73 73 72 71 72 72
19 15 15 18 20 20 22 26 34 34 34 36 40 38 39 41 43 42 43 48 52 53 54 56 58 60 60 60 61 62 63 64 63 64 63 63 64 65 66 66 67 67 68 68 69 70 71 72 72 73 73 72 73 73 73 72 73 75 74 71 67 63 65 66 66 66 67 65 64 69 73 74 75 74 73 74 74 74 75 75 74 75 76 77 77 77 77 77 77 76 73 74 72 70 70 71 72
14 8 5 13 21 23 25 24 29 31 33 33 36 38 40 40 39 40 43 45 49 50 53 56 58 58 60 61 61 63 62 64 64 64 64 64 64 64 66 67 67 67 67 68 68 69 69 70 72 72 72 72 73 73 74 74 74 75 74 73 71 69 69 68 67 66 68 67 63 67 71 74 74 74 73 74 74 74 75 75 74 74 75 76 76 76 76 74 75 73 75 75 74 70 68 70 72
12 12 8 11 19 22 26 27 30 28 28 30 32 35 37 40 40 39 41 45 47 49 53 56 58 59 60 60 61 62 62 64 65 64 64 64 64 65 66 67 66 66 67 68 68 68 69 71 72 73 72 72 72 73 74 74 74 73 73 71 69 68 67 66 64 63 60 61 59 60 69 72 73 74 74 74 74 74 75 75 75 74 74 74 75 74 75 75 76 74 74 74 73 75 73 70 69
11 12 12 11 15 24 28 28 28 30 30 28 29 30 33 37 37 39 41 43 46 49 51 54 57 59 60 60 61 62 62 63 64 64 65 64 65 65 65 66 66 66 67 67 68 69 70 71 72 72 72 72 72 73 73 74 73 73 73 70 69 68 66 65 66 62 59 59 61 61 65 71 74 73 73 74 74 75 75 75 76 75 73 74 75 75 74 72 72 74 74 74 73 75 75 72 70
10 10 11 11 8 14 24 27 27 28 29 28 30 29 31 33 35 39 39 41 45 48 51 54 54 59 58 60 59 62 62 62 64 64 65 65 65 65 65 66 66 65 66 67 68 68 71 72 73 73 73 73 73 73 73 73 73 73 74 72 69 69 65 66 68 67 64 64 63 63 65 69 73 74 72 74 75 75 76 76 76 75 74 73 73 73 72 72 72 74 76 77 76 77 77 73 71
11 10 11 13 11 8 11 20 25 27 28 30 29 31 32 33 35 38 38 39 41 47 50 54 54 57 58 59 59 61 61 63 63 64 64 64 65 66 66 66 66 66 66 67 68 69 70 72 73 74 73 73 72 73 73 73 73 74 74 72 71 70 68 67 69 69 67 67 68 67 69 70 73 74 74 73 75 75 75 75 76 76 74 74 74 72 71 70 72 73 76 77 77 77 75 75 75
14 13 22 18 17 12 6 6 16 25 30 30 31 28 31 31 33 34 39 39 40 45 47 51 53 54 58 58 59 59 62 63 63 64 64 65 65 65 66 67 67 66 66 68 68 68 70 72 73 74 73 73 73 74 74 74 73 73 73 73 72 71 70 69 69 69 70 71 70 71 71 72 71 73 74 75 75 76 75 76 75 74 75 73 72 71 71 71 72 73 74 75 76 76 77 75 74
16 14 16 19 16 14 12 7 13 22 26 29 28 28 29 28 31 32 33 36 40 41 45 49 53 53 55 58 58 58 60 62 62 63 64 65 65 66 66 66 67 66 67 68 68 69 70 71 73 74 74 73 73 73 74 73 73 73 74 74 73 73 72 71 70 72 71 72 71 70 71 71 71 71 71 73 74 75 75 75 74 73 74 74 74 73 73 71 70 71 71 73 75 76 76 76 75
18 15 13 17 20 20 20 14 16 16 19 26 26 26 28 28 31 31 34 35 36 36 39 46 47 50 54 58 56 57 59 61 62 62 63 65 66 66 66 67 67 68 68 68 68 69 70 72 73 74 74 74 74 73 73 72 72 73 74 74 74 74 73 71 72 72 72 72 72 70 70 71 72 71 72 71 72 72 74 74 74 74 74 74 74 74 73 72 71 70 71 73 74 74 76 77 75
20 17 18 16 18 22 20 19 15 17 15 20 21 25 27 29 33 32 31 31 35 38 35 42 45 47 54 55 58 58 58 59 61 63 64 64 65 66 66 67 69 69 69 69 68 68 70 72 73 74 75 74 74 73 72 72 73 72 73 73 74 74 74 73 73 72 73 72 71 70 71 72 73 73 72 71 71 72 73 75 75 74 74 75 76 75 75 75 74 72 72 72 72 73 74 76 76
20 19 19 18 16 22 23 20 21 18 17 15 19 23 23 27 29 33 31 33 33 36 39 39 42 46 51 55 57 56 57 58 60 61 63 64 65 66 67 67 68 69 68 68 69 70 71 71 73 74 75 75 75 74 73 73 73 73 73 73 74 74 74 74 73 72 71 72 72 71 70 69 72 72 71 73 71 71 72 74 76 75 76 76 77 77 76 75 75 73 74 73 72 73 73 75 76
21 18 17 18 19 21 24 20 17 16 19 19 17 17 22 21 26 27 32 33 35 35 35 40 41 42 48 50 54 55 57 59 60 61 61 63 65 66 66 67 68 68 68 68 68 70 71 72 73 74 75 75 75 74 74 73 72 73 73 73 73 73 73 73 73 72 72 72 70 71 71 68 68 71 71 73 74 73 73 74 75 75 75 76 77 76 75 75 76 75 75 75 74 73 74 73 73
21 19 19 18 17 21 21 22 19 19 18 15 19 15 22 26 31 30 31 29 32 33 36 38 40 40 43 47 49 51 53 56 58 60 61 63 65 66 66 67 67 68 69 68 69 70 70 72 73 74 75 75 75 75 74 73 73 73 73 73 73 73 74 74 74 74 73 72 73 72 72 72 70 69 73 74 74 74 74 74 74 75 75 74 76 77 76 74 75 74 74 75 75 73 74 74 74
22 20 19 18 18 16 20 23 19 21 23 22 23 23 22 22 22 25 29 27 29 31 31 31 33 37 43 43 45 46 50 55 58 59 60 63 63 65 65 66 66 67 68 68 70 71 72 72 72 74 75 75 75 75 73 74 74 73 73 73 72 72 72 72 72 73 71 73 73 73 71 72 72 72 72 74 74 76 75 74 74 72 74 75 75 76 75 75 76 75 73 75 75 72 74 75 73
21 21 20 20 19 19 21 16 21 18 19 22 19 19 22 21 19 20 23 25 24 27 29 28 33 34 35 38 42 46 47 52 57 60 62 62 63 64 64 64 65 66 67 68 71 71 71 72 72 73 74 74 74 74 73 73 74 74 74 73 73 73 71 71 72 73 72 72 73 74 72 72 72 71 71 71 74 74 76 76 75 74 73 74 74 73 75 75 76 74 74 75 74 75 75 75 75
26 23 24 20 20 20 24 23 19 18 18 19 17 16 15 19 23 20 17 16 19 24 27 28 28 31 34 36 39 43 45 48 55 58 60 61 62 63 65 64 64 66 68 69 69 69 70 71 71 71 73 73 73 72 73 74 74 73 73 73 73 72 72 72 73 74 74 72 72 72 72 71 71 72 73 74 74 73 75 76 76 74 75 74 75 74 75 75 76 75 73 73 74 76 75 75 76
26 27 25 23 24 24 24 25 28 27 19 20 19 14 16 18 17 15 20 19 17 15 22 22 24 29 32 37 38 41 45 45 50 56 58 60 61 61 62 63 63 64 66 67 67 68 68 69 71 71 71 72 73 73 73 73 73 73 72 73 74 74 74 73 73 74 73 72 72 71 72 70 71 71 72 74 74 73 73 73 74 73 71 72 74 73 73 74 75 75 73 71 71 75 75 75 74
24 25 25 26 24 24 23 25 25 23 25 23 23 17 22 24 20 15 19 24 25 19 22 25 25 28 27 34 38 42 45 48 50 54 57 59 60 60 61 62 62 63 65 66 66 67 67 68 69 70 71 71 71 71 72 73 73 73 74 74 73 74 73 73 73 73 73 73 73 73 72 71 72 72 72 73 74 74 73 73 72 73 72 73 74 73 73 74 75 76 75 75 74 74 75 74 74
23 24 24 24 24 23 22 24 24 22 22 24 23 22 28 21 20 19 18 22 23 26 27 25 25 25 32 33 38 42 44 50 52 53 55 57 60 60 60 62 62 62 64 65 65 65 66 67 68 68 68 69 69 70 72 73 73 73 73 73 73 73 73 74 73 73 73 72 73 73 73 73 71 73 73 72 74 73 73 73 73 73 74 73 74 76 73 73 74 75 75 73 74 75 76 75 74